TimeCDT,TemperatureF,Dew PointF,Humidity,Sea Level PressureIn,VisibilityMPH,Wind Direction,Wind SpeedMPH,Gust SpeedMPH,PrecipitationIn,Events,Conditions,WindDirDegrees,DateUTC
12:15 AM,68.0,65.8,93,29.87,10.0,South,3.5,-,N/A,,Overcast,180,2013-08-06 05:15:00
12:35 AM,68.2,65.8,92,29.87,10.0,South,4.6,-,N/A,,Overcast,190,2013-08-06 05:35:00
12:55 AM,68.2,65.8,92,29.88,10.0,South,3.5,-,N/A,,Overcast,190,2013-08-06 05:55:00
1:15 AM,68.0,65.7,92,29.87,7.0,Calm,Calm,-,N/A,,Overcast,0,2013-08-06 06:15:00
1:35 AM,67.5,65.5,93,29.87,7.0,Calm,Calm,-,N/A,,Overcast,0,2013-08-06 06:35:00
1:55 AM,67.6,65.7,93,29.88,7.0,Calm,Calm,-,N/A,,Overcast,0,2013-08-06 06:55:00
2:15 AM,67.6,65.8,94,29.87,7.0,Calm,Calm,-,N/A,,Overcast,0,2013-08-06 07:15:00
2:35 AM,67.6,65.8,94,29.87,7.0,Calm,Calm,-,N/A,,Overcast,0,2013-08-06 07:35:00
2:55 AM,67.6,65.8,94,29.86,7.0,Calm,Calm,-,N/A,,Overcast,0,2013-08-06 07:55:00
3:15 AM,68.0,66.0,93,29.85,7.0,Calm,Calm,-,N/A,,Overcast,0,2013-08-06 08:15:00
3:35 AM,67.6,65.8,94,29.85,5.0,Calm,Calm,-,N/A,,Overcast,0,2013-08-06 08:35:00
3:55 AM,67.1,65.3,94,29.84,4.0,Calm,Calm,-,N/A,,Overcast,0,2013-08-06 08:55:00
4:15 AM,67.6,66.2,95,29.84,5.0,Calm,Calm,-,N/A,,Overcast,0,2013-08-06 09:15:00
4:35 AM,68.0,66.2,94,29.85,5.0,Calm,Calm,-,N/A,,Overcast,0,2013-08-06 09:35:00
4:55 AM,68.2,66.6,95,29.85,3.0,West,4.6,-,N/A,,Overcast,270,2013-08-06 09:55:00
5:15 AM,68.2,66.6,95,29.85,1.2,Calm,Calm,-,N/A,,Overcast,0,2013-08-06 10:15:00
5:35 AM,68.0,66.6,95,29.85,2.0,Calm,Calm,-,N/A,,Overcast,0,2013-08-06 10:35:00
5:55 AM,68.0,66.6,95,29.85,2.0,Calm,Calm,-,N/A,,Overcast,0,2013-08-06 10:55:00
6:15 AM,68.0,66.6,95,29.85,3.0,Calm,Calm,-,N/A,,Overcast,0,2013-08-06 11:15:00
6:35 AM,67.5,66.2,96,29.85,2.5,Calm,Calm,-,N/A,,Overcast,0,2013-08-06 11:35:00
6:55 AM,68.2,66.7,95,29.85,2.0,SSW,3.5,-,N/A,,Overcast,210,2013-08-06 11:55:00
7:15 AM,68.9,66.9,93,29.85,5.0,Calm,Calm,-,N/A,,Overcast,0,2013-08-06 12:15:00
7:35 AM,69.8,66.6,89,29.86,7.0,Calm,Calm,-,N/A,,Overcast,0,2013-08-06 12:35:00
7:55 AM,70.3,66.4,87,29.87,7.0,Calm,Calm,-,N/A,,Overcast,0,2013-08-06 12:55:00
8:15 AM,70.7,66.4,86,29.88,10.0,SW,3.5,-,N/A,,Overcast,230,2013-08-06 13:15:00
8:35 AM,71.2,66.2,84,29.88,10.0,South,4.6,-,N/A,,Overcast,190,2013-08-06 13:35:00
8:55 AM,72.5,66.0,80,29.89,10.0,SW,5.8,-,N/A,,Overcast,230,2013-08-06 13:55:00
9:15 AM,72.3,65.8,80,29.89,10.0,SW,5.8,-,N/A,,Overcast,230,2013-08-06 14:15:00
9:35 AM,73.6,66.6,79,29.89,10.0,SW,6.9,-,N/A,,Overcast,230,2013-08-06 14:35:00
9:55 AM,73.6,65.3,75,29.90,10.0,SW,5.8,-,N/A,,Mostly Cloudy,230,2013-08-06 14:55:00
10:15 AM,75.0,65.7,73,29.89,10.0,WSW,6.9,-,N/A,,Mostly Cloudy,240,2013-08-06 15:15:00
10:35 AM,76.3,66.2,71,29.89,10.0,WSW,5.8,-,N/A,,Scattered Clouds,250,2013-08-06 15:35:00
10:55 AM,77.4,66.6,69,29.89,10.0,SSW,6.9,-,N/A,,Scattered Clouds,210,2013-08-06 15:55:00
11:15 AM,77.5,64.6,64,29.89,10.0,SW,4.6,-,N/A,,Mostly Cloudy,230,2013-08-06 16:15:00
11:35 AM,79.2,66.0,64,29.88,10.0,SW,5.8,-,N/A,,Mostly Cloudy,230,2013-08-06 16:35:00
11:55 AM,79.0,66.0,64,29.87,10.0,WSW,8.1,-,N/A,,Mostly Cloudy,250,2013-08-06 16:55:00
12:15 PM,79.3,64.8,61,29.87,10.0,SW,6.9,-,N/A,,Scattered Clouds,230,2013-08-06 17:15:00
12:35 PM,80.6,64.6,58,29.86,10.0,SW,9.2,-,N/A,,Scattered Clouds,230,2013-08-06 17:35:00
12:55 PM,81.3,64.6,57,29.85,10.0,SW,9.2,-,N/A,,Scattered Clouds,220,2013-08-06 17:55:00
1:15 PM,81.7,64.2,55,29.85,10.0,WSW,11.5,-,N/A,,Scattered Clouds,240,2013-08-06 18:15:00
1:35 PM,82.6,64.6,54,29.84,10.0,WSW,6.9,-,N/A,,Scattered Clouds,240,2013-08-06 18:35:00
1:55 PM,82.4,64.8,55,29.84,10.0,West,10.4,-,N/A,,Scattered Clouds,270,2013-08-06 18:55:00
2:15 PM,82.8,64.4,54,29.84,10.0,WSW,9.2,-,N/A,,Scattered Clouds,250,2013-08-06 19:15:00
2:35 PM,81.9,64.9,56,29.83,10.0,SW,9.2,17.3,N/A,,Mostly Cloudy,220,2013-08-06 19:35:00
2:55 PM,83.7,64.8,53,29.83,10.0,SW,8.1,-,N/A,,Mostly Cloudy,230,2013-08-06 19:55:00
3:15 PM,-9999,-9999,N/A,29.82,10.0,WSW,5.8,-,N/A,,Scattered Clouds,250,2013-08-06 20:15:00
3:35 PM,-9999,-9999,N/A,29.82,10.0,West,4.6,-,N/A,,Mostly Cloudy,260,2013-08-06 20:35:00
3:55 PM,83.7,64.9,53,29.82,10.0,West,5.8,-,N/A,,Mostly Cloudy,280,2013-08-06 20:55:00
4:15 PM,-9999,-9999,N/A,29.82,10.0,SW,8.1,-,N/A,,Scattered Clouds,230,2013-08-06 21:15:00
4:35 PM,83.5,65.7,55,29.82,10.0,WSW,4.6,-,N/A,,Scattered Clouds,250,2013-08-06 21:35:00
4:55 PM,82.8,65.3,55,29.82,10.0,West,6.9,-,N/A,,Mostly Cloudy,270,2013-08-06 21:55:00
5:15 PM,85.1,64.8,50,29.83,10.0,WSW,5.8,-,N/A,,Scattered Clouds,250,2013-08-06 22:15:00
5:35 PM,84.4,64.6,51,29.83,10.0,West,6.9,-,N/A,,Scattered Clouds,260,2013-08-06 22:35:00
5:55 PM,83.7,63.9,51,29.83,10.0,WSW,8.1,-,N/A,,Scattered Clouds,240,2013-08-06 22:55:00
6:15 PM,-9999,-9999,N/A,29.83,10.0,SW,6.9,-,N/A,,Clear,230,2013-08-06 23:15:00
6:35 PM,82.9,65.7,56,29.83,10.0,SW,4.6,-,N/A,,Clear,220,2013-08-06 23:35:00
6:55 PM,81.5,66.7,61,29.83,10.0,SSW,6.9,-,N/A,,Clear,210,2013-08-06 23:55:00
7:15 PM,80.6,66.9,63,29.83,10.0,SW,5.8,-,N/A,,Clear,220,2013-08-07 00:15:00
7:35 PM,80.6,66.7,63,29.82,10.0,SSW,5.8,-,N/A,,Mostly Cloudy,210,2013-08-07 00:35:00
7:55 PM,79.0,67.1,67,29.82,10.0,SSW,6.9,-,N/A,,Scattered Clouds,200,2013-08-07 00:55:00
8:15 PM,-9999,-9999,N/A,29.81,10.0,SSW,4.6,-,N/A,,Clear,200,2013-08-07 01:15:00
8:35 PM,77.4,68.0,73,29.81,10.0,South,6.9,-,N/A,,Clear,190,2013-08-07 01:35:00
8:55 PM,77.0,68.0,74,29.81,10.0,South,5.8,-,N/A,,Clear,190,2013-08-07 01:55:00
9:15 PM,76.6,68.0,75,29.81,10.0,SSW,8.1,-,N/A,,Clear,200,2013-08-07 02:15:00
9:35 PM,76.1,68.2,76,29.83,10.0,SW,4.6,-,N/A,,Clear,220,2013-08-07 02:35:00
9:55 PM,75.6,68.2,78,29.83,10.0,SSW,4.6,-,N/A,,Clear,210,2013-08-07 02:55:00
10:15 PM,74.8,68.2,80,29.83,10.0,SW,4.6,-,N/A,,Clear,220,2013-08-07 03:15:00
10:35 PM,74.8,68.4,80,29.81,10.0,SW,5.8,-,N/A,,Clear,220,2013-08-07 03:35:00
10:55 PM,74.7,69.6,84,29.82,10.0,SSW,6.9,-,N/A,,Clear,210,2013-08-07 03:55:00
11:15 PM,74.3,69.8,86,29.81,10.0,SSW,5.8,-,N/A,,Clear,210,2013-08-07 04:15:00
11:35 PM,74.5,70.3,87,29.81,10.0,SW,5.8,-,N/A,,Clear,220,2013-08-07 04:35:00
11:55 PM,74.7,70.7,87,29.81,7.0,SW,6.9,-,N/A,,Clear,220,2013-08-07 04:55:00